Location: OLV Amersfoort
(52.1552°N, 5.3872°E)
Time: 11:14:06
(UTC+01:00)

ISS - Visible Passes

Search period start: 04 December 2016 00:00
Search period end: 14 December 2016 00:00
Orbit: 401 x 410 km, 51.6° (Epoch: 04 December)

Date Brightness Start Highest point End Pass type
(mag) Time Alt. Az. Time Alt. Az. Time Alt. Az.
04 Dec -2.0 18:17:54 10° SSW 18:20:45 27° SSE 18:21:18 25° SE visible
04 Dec 0.1 19:53:39 10° WSW 19:53:59 12° WSW 19:53:59 12° WSW visible
05 Dec -1.3 17:26:38 10° S 17:28:59 18° SE 17:31:22 10° E visible
05 Dec -2.1 19:01:47 10° WSW 19:04:09 40° SW 19:04:09 40° SW visible
06 Dec -2.6 18:10:00 10° SW 18:13:09 43° SSE 18:14:16 30° ESE visible
06 Dec -0.2 19:46:12 10° W 19:46:56 16° W 19:46:56 16° W visible
07 Dec -2.0 17:18:20 10° SW 17:21:17 31° SSE 17:24:15 10° E visible
07 Dec -2.8 18:54:14 10° WSW 18:57:01 59° WSW 18:57:01 59° WSW visible
08 Dec -3.1 18:02:18 10° WSW 18:05:34 64° SSE 18:07:05 28° E visible
08 Dec -0.5 19:38:43 10° W 19:39:46 19° W 19:39:46 19° W visible
09 Dec -2.6 17:10:26 10° SW 17:13:37 48° SSE 17:16:51 10° E visible
09 Dec -3.2 18:46:43 10° W 18:49:49 76° WSW 18:49:49 76° WSW visible
10 Dec -3.3 17:54:42 10° W 17:58:01 80° S 17:59:52 24° E visible
10 Dec -0.8 19:31:11 10° W 19:32:32 22° W 19:32:32 22° W visible
11 Dec -3.1 17:02:43 10° WSW 17:06:00 69° SSE 17:09:18 10° E visible
11 Dec -3.4 18:39:09 10° W 18:42:28 79° S 18:42:36 76° SSE visible
12 Dec -3.3 17:47:07 10° W 17:50:26 84° S 17:52:43 19° E visible
12 Dec -1.1 19:23:37 10° W 19:25:23 27° W 19:25:23 27° W visible
13 Dec -3.0 18:31:33 10° W 18:34:49 61° SSW 18:35:32 46° SE visible
